Location: Oshawa
(43.9000°N, 78.8670°W)
Time: 00:15:08
(UTC-04:00)

Cosmos 1821 Rocket - Visible Passes

Search period start: 23 May 2015 00:00
Search period end: 02 June 2015 00:00
Orbit: 947 x 1004 km, 82.9° (Epoch: 22 May)

Date Brightness Start Highest point End Pass type
(mag) Time Alt. Az. Time Alt. Az. Time Alt. Az.
23 May 4.1 01:42:46 52° SSE 01:44:13 69° E 01:50:35 10° NNE visible
23 May 5.6 03:27:26 16° W 03:30:21 21° WNW 03:34:54 10° NNW visible
24 May 5.7 00:23:17 17° E 00:24:48 19° E 00:29:12 10° NE visible
24 May 4.1 02:07:56 50° SW 02:09:35 70° W 02:15:59 10° N visible
24 May 6.1 03:54:04 10° W 03:56:26 12° WNW 03:58:24 10° NW visible
25 May 5.0 00:48:26 30° ESE 00:49:49 34° E 00:55:30 10° NNE visible
25 May 4.8 02:33:05 32° WSW 02:35:09 40° WNW 02:41:07 10° N visible
26 May 4.2 01:13:35 48° SE 01:14:59 59° E 01:21:16 10° NNE visible
26 May 5.5 02:58:14 19° W 03:00:56 24° WNW 03:05:54 10° NNW visible
26 May 5.8 23:54:03 15° E 23:55:38 16° E 23:59:31 10° NE visible
27 May 4.0 01:38:43 54° SSW 01:40:18 81° W 01:46:45 10° N visible
27 May 6.1 03:23:39 10° W 03:26:57 14° WNW 03:29:55 10° NNW visible
28 May 5.1 00:19:11 26° ESE 00:20:38 29° E 00:26:03 10° NNE visible
28 May 4.6 02:03:50 36° WSW 02:05:48 47° WNW 02:11:57 10° N visible
29 May 4.4 00:44:17 43° SE 00:45:45 51° E 00:51:56 10° NNE visible
29 May 5.4 02:28:56 21° WSW 02:31:31 28° WNW 02:36:50 10° NNW visible
29 May 5.9 23:24:44 12° E 23:26:29 14° E 23:29:43 10° NE visible
30 May 4.0 01:09:23 53° S 01:11:02 88° E 01:17:29 10° N visible
30 May 6.0 02:54:02 11° W 02:57:29 16° WNW 03:01:09 10° NNW visible
30 May 5.3 23:49:49 22° ESE 23:51:26 25° E 23:56:34 10° NNE visible
31 May 4.4 01:34:28 40° SW 01:36:28 54° WNW 01:42:45 10° N visible
01 Jun 4.6 00:14:53 37° SE 00:16:32 44° E 00:22:34 10° NNE visible
01 Jun 5.2 01:59:32 24° WSW 02:02:08 32° WNW 02:07:44 10° N visible
01 Jun 6.0 22:55:32 10° E 22:57:20 12° ENE 22:59:35 10° ENE visible
